Погода в Шаки

Погода в Шаки : погода сейчас, прогноз погоды и архив. Всё, что Вы хотите узнать о погоде в Шаки!

Поиск расширенной информации на нашем сайте:

Другие новости

Новости СМИ2

Главная страница сайта

Новости сайта

02.10.2013

Напоминаем, что на нашем новом сайте вы можете получить высокодетализированные прогнозы погоды по пунктам России, СНГ и мира (включающие важные для авиации метеовеличины, такие как направление и скорость ветра, видимость, явления погоды, количество и форма облачности, нижняя и верхняя граница облачности), а также ознакомиться с разнообразными материалами по авиационной метеорологии и подборкой полезных ссылок на эту тему.

Сайт Метеоцентр.Азия посвящён разработке технологий оптимизации авиаметеорологического обслуживания, включая проектирование и перспективное создание нескольких автоматизированных авиаметеорологических систем:
- система выпуска высокодетальных прогностических карт явлений погоды для нижнего воздушного пространства по России и ближнему зарубежью;
- система верификации прогнозов TAF (выпускаемых синоптиками официальных АМСГ РФ и ближнего зарубежья) и AUTOTAF (выпускаемых сайтом Метеоцентр.Азия) - выявление ошибок, онлайн-сопоставление с фактической погодой METAR, автоматическое внесение коррективов в прогнозы при резком отклонении фактической погоды от прогноза, подсчёт оправдываемости прогнозов по элементам и в целом;
- система обработки, анализа и отображения авиаметеорологической информации для применения провайдерами метеорологической информации.

Рекомендуем: удобные сауны города екатеринбурга

Погода в Шаки - сегодня

Время (UTC), дата Ветер
(°,м/с) 
Видим.   Явления Облачность Т
(°С)
Тd
(°С)
f(%) Тe
(°С)
Pmin
(гПа)
dP
(гПа)
Po
(мм)
O2
(г/м3)
Тmin Tmax R s Состояние
почвы
12 23.06.17 210 (ЮЗ) 10 км    6/5 600 м средняя 
[Cu med, cong|Ac und]
+25.1 +12.9 47 +32  1012.4  -1.1  706  258           
15 23.06.17 260 (З) 10 км    6/5 600 м средняя 
[Cu med, cong|Ac und]
+24.3 +9.4 39 +26  1012.1  -0.5  706  259           
21 23.06.17 030 (СВ) 20000 м    8/0 средняя 
[Ac und]
+18 +15.4 85 +30  1014.9  0.2  707  264           
00 24.06.17 050 (СВ) 20000 м    8/0 средняя 
[Ac und]
+17.5 +14.4 82 +28  1015.3  0.2  707  265           
06 24.06.17 270 (З) 20000 м    5/0 средняя 
[Cu med, cong|Ac und]
+20.5 +14.7 69 +30  1015.2  0.3  707  262           
09 24.06.17 300 (СЗ) 20000 м    3/0 
[Cu med, cong]
+24.1 +13.1 50 +31  1013.2  -1  707  259           
12 24.06.17 330 (СЗ) 20000 м    ясно 
+25.7 +13.7 47 +34  1010.8  -1.8  705  257           
15 24.06.17 350 (С) 20000 м    ясно 
+26.3 +11.4 39 +31  1009.6  -1.1  704  257           
18 24.06.17 070 (В) 20000 м    ясно 
+20.5 +12.5 60 +27  1010.9  -0.1  704  262    +27.2       
21 24.06.17 060 (СВ) 20000 м    ясно 
+17.1 +9.7 62 +20  1011.9  704  265           
00 25.06.17 330 (СЗ) 20000 м    ясно 
+17.7 +8.9 56 +20  1011.6  -0.1  704  265           
03 25.06.17 060 (СВ) 20000 м    ясно 
+17.4 +10.3 63 +22  1011.7  704  265           
09 25.06.17 320 (СЗ) 20000 м    ясно 
+27.2 +13.5 43 +35  1009.6  705  255           
12 25.06.17 350 (С) 20000 м    1/0 
[Cu med, cong]
+29.1 +12.2 35 +35  1008.6  -0.5  704  254           
15 25.06.17 320 (СЗ) 20000 м    ясно 
+28.5 +11.1 34 +32  1009.2  0.4  705  255           
21 25.06.17 290 (З) 20000 м    ясно 
+23.1 +14.9 60 +33  1014.3  2.3  707  260           
00 26.06.17 230 (ЮЗ) 20000 м    ясно 
+22.3 +14.9 63 +32  1015.5  0.9  708  261           
03 26.06.17 150 (ЮВ) 20000 м    6/0 средняя 
[Ac und]
+19.9 +15.7 77 +33  1017.3  1.2  709  263           
09 26.06.17 230 (ЮЗ) 10 км    3/1 1000 м средняя 
[Cu med, cong|Ac und]
+25.9 +15 51 +36  1016.8  -0.1  709  258           
12 26.06.17 290 (З) 10 км    6/6 600 м 
+27.1 +14.3 45 +36  1015.5  -0.9  709  257           
15 26.06.17 150 (ЮВ) 10 км    8/8 600 м кучево-дожд. 
[Cb cap]
+25.9 +14.8 50 +36  1015.1  -0.6  708  258           
21 26.06.17 200 (Ю) 20000 м    6/0 средняя 
[Ac und]
+21.5 +13.5 60 +29  1017.1  0.3  709  262           
00 27.06.17 120 (ЮВ) 20000 м    ясно 
+18.8 +14.7 77 +30  1017.1  -0.6  708  264           
03 27.06.17 060 (СВ) 20000 м    ясно 
+17.9 +15.7 87 +31  1017.2  -0.1  708  264           
09 27.06.17 280 (З) 10 км    6/4 600 м средняя 
[Cu med, cong|Ac und]
+25.9 +15.4 52 +37  1014.4  -0.9  708  257           
Время (UTC), дата Ветер
(°,м/с) 
Видим.   Явления Облачность Т
(°С)
Тd
(°С)
f(%) Тe
(°С)
Pmin
(гПа)
dP
(гПа)
Po
(мм)
O2
(г/м3)
Тmin Tmax R s Состояние
почвы

Для получения пояснительной информации подведите курсор к названию столбца.

ПОГОДА в Шаки - архив

Всё, что Вы хотите узнать о погоде в Шаки - удобно и подробно!

Выберите нужную дату (начиная с 1 января 2015* года) и нажмите кнопку "Найти".
Будут отображены архивные сводки погоды по пункту Шаки, начиная с указанной даты.


Отображать данные в формате CSV (для использования в таблицах Excel)


Внимание! Наш архив погоды предназначен исключительно для личного некоммерческого использования в познавательных целях. Если Вам необходимы официальные справки о состоянии погоды (для производственных, юридических, коммерческих и т.п. целей), обращайтесь в органы Росгидромета.

*Примечание: данная дата относится к архиву по метеостанциям СССР (Россия, СНГ, Балтия).
Архив по метеостанциям Зарубежной Европы и Азии (кроме Китая) хранится 10 дней, по другим регионам земного шара (Китай, Африка, Америка, Австралия, Океания) - 1 день.

Шаки - район местоположения метеостанции


Название, широта, долгота, высота метеостанции:
Шаки 41.2°ш. 47.2°д. 641 м над ур. моря [Азербайджан]

Дополнительная информация

В oтличие oт бoльшинства пoгoдных сайтoв мы публикуем пoдрoбную метеoинфoрмацию в детальнoм прoфессиoнальнoм фoрмате.

Характеристики температуры и влажнoсти вoздуха измеряются на высoте 2 м в тени вдали oт зданий и деревьев.
Скoрoсть ветра измеряется на высoте 10 м (на урoвне рoста челoвека скoрoсть ветра ниже в 1.5-2 раза). Если метеoстанция нахoдится в гoрoде или в лесу, тo скoрoсть ветра занижена на 2-4 м/с пo сравнению с oткрытым местoм. Скoрoсть ветра над акватoриями крупных рек и oзёр, а также на вершинах хoлмoв на 2-5 м/с выше, чем в oбычных услoвиях.
Атмoсфернoе давление в разных тoчках местнoсти мoжет значительнo oтличаться oт давления на метеoстанции, в зависимoсти oт услoвий рельефа (при пoдъёме на 10 м давление пoнижается примернo на 1 мм рт.ст.).